Dewpoint
48 48 48 48 48 47 47 48 47 46 46 46 45 45 45 44 44 44 42 43 43 42 42 41 40 41 41 40 39 41 41 43 43 43 43 43 43 44 43 41 42 42 43 43 42 45 43 41 40 41 41 41 41 41 40 40 40 40 40 40 39 41 41 41 39 39 40 42 41 41 41 42 41 42 39 40 43 45 48 53 57 61 63 65 63
47 47 47 47 46 47 47 47 45 44 45 45 45 44 44 43 44 43 44 43 42 40 40 42 40 41 39 38 39 39 40 40 42 43 42 43 43 43 44 42 42 42 43 41 42 44 43 41 39 40 40 40 40 39 38 38 38 38 38 39 37 39 40 39 38 38 38 39 39 40 40 41 39 40 41 42 42 44 44 47 51 53 61 63 65
45 46 45 46 46 47 46 45 44 45 44 43 43 42 43 43 42 43 41 41 41 40 40 40 40 40 38 39 39 40 40 39 41 41 41 42 41 42 42 42 42 42 42 41 39 40 40 41 39 39 41 41 42 41 41 40 40 39 40 39 39 39 39 39 38 37 37 37 38 38 39 40 41 39 40 42 43 42 43 46 49 52 52 61 65
45 44 45 46 46 46 45 44 45 45 44 44 44 42 41 41 41 41 40 40 39 41 40 38 40 41 40 37 38 38 38 39 39 40 40 41 41 41 41 42 41 41 40 39 39 40 39 39 38 38 39 40 40 40 40 40 39 39 38 39 39 38 40 40 39 38 37 36 37 37 38 39 39 39 39 41 41 41 40 43 45 50 53 53 57
43 43 45 46 45 44 45 44 44 44 44 43 43 42 42 41 40 37 39 39 38 39 39 39 39 40 40 37 37 37 37 37 37 38 39 41 42 42 41 40 41 40 40 40 40 39 39 38 37 37 38 39 39 38 38 39 38 38 37 37 37 38 38 38 38 38 37 37 37 37 39 39 40 40 40 39 41 41 43 43 42 45 53 54 55
44 45 45 44 43 43 43 44 43 43 43 43 42 41 40 40 39 39 37 38 38 39 39 39 39 38 38 37 37 36 35 36 36 37 38 40 42 43 43 42 41 39 39 39 38 39 38 37 36 38 38 38 38 38 38 38 37 37 36 36 36 37 38 38 38 38 38 37 37 37 39 39 39 40 40 40 40 39 41 42 43 45 49 53 54
44 44 43 43 42 42 42 41 41 42 42 41 41 40 39 39 38 38 38 37 37 38 38 38 40 39 38 38 36 36 36 35 37 39 39 40 42 41 42 41 41 41 40 38 38 38 37 36 37 38 38 37 37 37 37 37 37 36 37 37 36 37 37 37 37 38 37 37 37 37 37 38 39 38 38 40 41 40 41 41 42 44 46 47 51
42 42 43 43 41 41 41 41 41 40 40 39 38 38 37 38 39 39 39 38 38 38 38 39 40 40 40 38 36 37 35 35 37 38 39 40 42 41 41 41 40 40 41 38 38 37 36 36 37 37 37 37 37 37 37 36 37 36 36 37 37 37 36 37 37 36 36 37 37 36 36 37 37 38 39 39 39 39 40 40 40 41 42 43 44
41 41 41 41 40 39 39 39 39 39 37 37 38 38 38 39 37 37 38 39 40 38 39 39 39 39 38 39 36 36 37 37 38 39 39 39 41 41 41 40 39 39 38 37 37 36 36 36 37 37 38 39 42 41 42 40 37 35 36 37 37 37 36 36 37 36 36 36 36 37 36 36 36 37 36 37 37 37 39 40 40 41 42 42 43
40 40 40 40 39 37 37 38 37 37 37 37 36 37 37 38 38 37 37 37 39 39 39 40 38 39 38 37 37 37 37 38 39 39 39 39 40 41 41 41 39 38 37 37 36 36 35 35 37 40 43 42 39 40 38 38 39 37 37 37 37 37 36 37 36 36 36 36 35 35 35 35 36 37 37 37 38 39 39 39 39 39 40 41 41
39 38 37 37 36 36 36 35 35 35 35 36 36 35 35 37 37 38 39 40 40 40 40 40 40 39 37 36 36 37 36 36 38 37 37 38 40 41 41 39 38 37 37 36 35 34 34 34 35 36 36 37 34 38 37 37 37 37 38 39 40 39 38 37 37 37 36 36 36 36 36 35 36 36 37 36 38 38 37 38 39 39 39 39 38
37 37 36 36 35 34 34 34 33 33 34 32 33 33 34 35 37 38 39 40 40 41 41 41 41 41 39 36 36 36 36 38 36 37 37 37 38 40 41 39 38 37 36 35 34 34 34 34 34 35 34 34 34 34 35 36 36 37 37 37 38 38 38 40 38 36 37 36 36 36 36 36 36 37 36 37 37 37 37 38 38 38 38 38 39
36 36 36 35 33 35 33 33 33 33 33 33 34 35 34 35 36 37 39 40 41 40 40 41 42 41 40 36 35 34 35 37 36 37 36 36 36 39 39 39 37 36 36 35 34 34 34 34 34 35 34 39 36 33 33 34 36 37 38 38 38 38 36 36 37 39 38 37 36 36 36 36 36 36 38 37 38 37 37 36 36 37 37 37 38
36 36 35 34 33 32 33 32 32 32 34 35 34 34 34 35 38 38 38 39 39 40 40 41 41 41 40 38 36 33 33 37 36 36 36 36 35 37 39 39 38 36 35 35 35 34 34 34 33 34 34 34 34 33 33 34 34 36 37 37 37 38 38 37 37 37 38 37 37 36 36 37 36 37 38 37 37 36 36 35 36 36 37 37 39
37 37 35 33 33 32 31 31 32 33 33 33 35 35 36 37 36 36 37 37 37 37 38 39 40 41 41 39 37 35 35 36 35 35 35 35 35 39 38 38 37 36 36 35 34 34 35 35 34 34 33 34 34 35 34 34 35 36 36 36 36 36 37 37 37 37 38 38 37 37 37 37 38 37 37 38 37 37 37 37 37 37 37 38 39
34 35 34 33 31 31 32 32 33 32 33 34 34 35 37 37 37 37 37 36 37 37 38 37 38 39 40 41 38 35 33 35 35 35 35 35 35 39 35 37 36 35 35 33 33 32 33 34 33 32 31 33 35 34 35 35 35 35 35 35 34 35 35 37 37 38 39 38 38 38 38 38 38 39 39 38 37 37 38 37 37 36 36 36 35
33 35 35 33 32 32 32 32 33 33 33 34 34 37 37 36 36 36 36 36 36 35 37 37 37 37 37 39 39 36 33 35 35 35 35 35 37 38 35 33 35 35 34 32 32 32 33 32 32 30 31 32 34 33 34 36 35 34 34 34 33 34 34 35 37 37 37 37 37 37 37 37 37 37 37 37 37 38 37 36 35 36 36 35 35
34 35 34 32 32 31 31 31 32 33 33 33 35 36 37 37 37 36 35 35 34 35 35 36 37 36 35 36 37 37 34 36 35 35 35 36 37 38 33 33 35 35 33 32 32 31 32 40 35 31 30 31 34 33 34 36 34 34 35 33 32 33 34 35 36 38 38 37 37 37 37 37 37 37 38 37 37 38 38 36 36 37 36 36 35
35 34 33 31 30 31 31 32 33 33 34 36 38 37 37 37 37 37 35 35 35 33 33 34 36 37 37 35 38 38 36 37 36 35 35 36 37 38 32 31 34 35 33 30 32 32 31 36 40 36 35 35 33 34 34 35 35 34 34 32 31 32 33 35 36 37 37 37 38 38 38 38 39 38 39 38 37 39 37 37 37 38 37 37 37
32 33 32 31 32 31 33 34 35 35 34 37 38 37 37 37 37 36 34 32 33 33 33 35 35 35 37 37 36 35 36 36 37 35 36 36 36 38 35 33 33 34 34 30 30 32 31 31 33 34 33 33 33 33 33 34 35 36 35 31 31 31 33 35 37 36 36 37 38 38 39 39 39 39 38 36 36 38 37 38 39 40 39 38 37
32 31 31 31 31 32 33 35 37 36 37 37 38 37 37 37 37 35 34 35 35 36 37 36 36 36 36 37 37 37 37 37 40 35 36 36 36 36 35 34 33 34 34 30 29 30 30 30 32 34 33 33 33 33 34 34 34 37 34 31 33 36 35 35 33 36 35 37 39 39 39 39 38 38 37 36 36 36 37 38 39 41 41 41 40
31 30 30 30 31 33 34 37 38 38 37 38 38 37 38 38 37 35 34 36 37 36 36 34 34 34 35 35 37 38 38 42 38 37 35 35 36 36 36 35 34 34 34 32 30 30 31 30 31 33 33 33 33 34 34 34 33 37 34 31 32 33 36 33 31 33 34 37 39 39 38 38 38 38 38 37 37 37 37 38 39 39 40 42 42
31 31 31 31 33 34 36 38 38 38 38 38 37 37 37 37 37 37 38 37 37 36 36 35 34 32 33 32 34 35 38 37 36 36 35 35 35 35 35 36 36 38 33 33 31 29 31 32 33 35 33 33 33 34 33 33 34 32 31 32 33 33 34 29 31 33 35 37 38 38 38 38 37 36 36 36 37 37 38 38 39 40 40 41 43
30 30 32 33 35 35 36 37 38 39 39 38 38 38 37 37 36 36 35 34 33 32 30 32 30 30 29 29 33 32 34 36 36 35 35 34 34 35 34 34 35 35 35 34 31 30 32 33 34 34 34 34 33 33 32 33 33 31 32 32 32 33 30 27 29 32 36 38 38 37 37 37 36 36 36 36 36 38 38 40 41 42 42 43 43
31 33 33 34 35 34 35 36 37 38 39 37 37 36 38 38 34 36 36 33 33 31 29 29 28 28 28 31 30 31 34 32 32 35 34 34 34 33 33 34 34 34 36 32 32 32 33 33 33 34 33 33 32 31 29 30 31 32 32 32 33 28 28 25 27 31 38 37 36 37 37 38 38 38 38 38 38 38 38 39 41 45 48 47 46
33 33 32 33 33 31 34 35 35 36 38 36 36 35 36 37 35 34 33 32 33 32 28 26 25 28 27 28 29 30 33 30 30 31 33 34 33 33 33 33 35 34 35 32 32 33 33 34 33 32 31 31 31 29 28 29 31 31 31 33 29 26 26 25 26 33 36 36 36 36 37 38 39 39 38 38 36 36 36 37 40 44 47 50 49
33 33 34 32 33 32 35 35 35 36 38 36 36 35 33 32 33 33 33 33 34 31 31 28 28 26 28 25 28 28 29 29 28 28 31 31 31 32 32 33 34 33 31 31 32 32 33 35 31 31 31 31 31 30 29 29 29 27 27 27 28 25 26 26 27 31 35 36 36 38 39 39 40 39 37 36 35 36 36 37 39 41 43 46 46
32 32 32 32 32 33 34 32 33 33 35 35 32 31 33 35 34 34 33 35 34 34 33 29 28 30 28 25 26 27 25 26 29 30 32 32 33 32 32 33 32 31 31 31 32 34 35 32 30 30 27 28 27 27 25 27 25 25 25 26 27 26 29 29 30 30 33 34 37 38 39 39 39 38 37 36 36 36 36 36 37 38 40 43 42
33 33 33 32 33 33 34 33 32 32 34 34 32 32 30 34 34 33 36 33 33 36 37 30 30 32 30 26 25 29 26 27 32 34 35 34 33 35 34 33 33 33 34 34 36 35 33 28 28 26 25 26 26 26 25 25 24 23 25 26 27 26 26 26 27 29 30 32 34 37 37 38 38 38 37 36 36 36 37 36 37 37 37 39 39
34 34 32 33 33 33 35 28 34 33 31 33 35 36 32 34 38 35 32 33 29 32 36 34 37 33 33 31 29 27 27 29 34 34 34 34 34 34 34 34 34 35 34 34 35 34 30 28 27 26 26 25 25 24 24 23 23 20 20 26 26 21 26 26 26 27 30 31 31 33 35 38 38 38 37 35 36 36 37 35 36 37 36 35 35
33 31 33 32 31 34 31 27 35 34 31 31 33 28 31 38 32 34 36 36 34 32 33 30 29 32 36 33 33 34 33 33 33 34 34 34 34 34 34 34 34 34 34 33 33 31 27 25 25 26 27 28 26 26 24 22 20 20 19 20 24 26 26 27 28 28 29 30 31 31 33 36 38 38 38 37 35 36 36 36 36 36 35 35 35
33 32 34 33 32 33 32 30 33 34 32 31 30 28 24 26 32 32 33 33 33 34 34 33 32 33 31 34 34 36 35 33 34 34 34 34 34 34 34 34 34 34 34 34 33 27 27 27 27 27 26 26 26 25 24 24 21 18 19 18 21 26 26 26 29 28 29 29 30 29 31 35 37 35 37 36 34 35 35 35 35 35 35 35 35
35 34 34 34 30 31 32 32 32 34 34 31 33 31 28 26 26 28 33 31 31 33 32 33 33 32 33 32 31 32 33 33 33 34 34 34 34 33 33 33 33 34 34 35 27 24 27 27 26 26 26 25 24 24 24 24 21 19 15 18 19 22 24 28 30 28 30 30 30 30 31 32 33 33 34 35 35 34 34 34 35 35 35 34 33
36 35 34 35 30 32 32 33 32 33 34 30 31 28 29 32 30 30 29 30 34 33 32 31 33 33 33 33 33 33 33 33 33 34 34 34 33 33 33 34 33 33 33 34 27 26 26 25 25 24 23 23 23 24 25 25 24 20 16 16 15 19 22 26 26 27 29 29 28 28 30 30 31 34 34 35 36 35 34 33 35 34 33 34 34
35 33 32 32 30 30 33 32 31 31 30 30 27 27 30 29 31 31 30 30 32 31 31 35 34 32 34 33 33 33 33 34 34 34 34 34 33 33 33 35 31 26 35 31 24 25 26 26 24 26 24 23 23 24 23 24 23 23 22 16 13 14 17 22 26 27 29 29 29 28 29 29 30 32 33 34 35 34 34 34 34 35 34 34 33
35 33 33 34 31 29 31 33 30 31 30 28 29 26 28 28 28 25 27 27 27 27 31 32 32 33 33 34 34 33 34 34 34 34 33 33 33 33 32 29 25 24 23 24 23 25 26 25 24 24 24 24 26 23 22 22 22 22 21 19 17 14 18 18 23 26 30 30 30 30 30 29 30 31 33 34 36 35 35 35 34 33 34 34 33
33 33 32 33 32 31 30 31 32 30 29 28 28 27 27 28 26 26 28 26 26 27 26 31 35 36 34 35 36 34 34 33 33 33 33 33 32 32 32 28 26 25 23 24 24 25 24 24 25 25 25 25 25 25 24 23 23 23 24 20 19 17 16 16 19 26 27 28 29 30 30 30 29 30 31 32 33 35 35 35 34 34 33 33 33
34 33 32 32 33 33 31 30 30 29 28 27 28 28 29 28 27 26 28 29 29 28 27 26 28 30 32 32 37 33 33 33 33 33 33 32 30 30 30 26 25 25 24 24 26 25 24 24 25 25 25 25 27 26 24 24 22 23 24 22 24 21 25 21 21 25 28 27 28 28 28 27 27 27 29 31 31 33 35 34 34 34 34 34 34
34 31 30 29 29 30 29 29 29 28 28 26 27 29 27 26 27 26 26 25 26 25 22 24 27 26 26 30 34 35 31 30 30 30 29 26 26 24 25 28 26 25 25 26 25 25 25 24 24 26 25 25 26 26 25 26 23 24 23 23 24 24 22 19 19 18 19 23 27 27 27 27 26 26 27 29 31 32 34 35 35 34 34 34 34
32 30 30 29 28 29 29 28 28 27 27 29 29 27 26 26 26 26 26 26 28 27 29 28 26 27 26 27 27 28 25 25 22 23 24 24 24 27 26 25 25 27 27 27 26 26 26 24 24 24 26 25 25 26 26 26 26 24 24 26 23 22 22 22 19 17 17 20 25 27 27 27 26 27 26 27 29 31 32 33 34 35 34 34 34
31 30 30 28 28 28 28 27 28 28 26 24 23 25 27 26 26 25 25 25 25 25 26 27 26 25 26 28 28 25 19 17 20 25 25 26 25 27 27 26 27 27 27 26 26 27 27 26 23 24 24 24 25 26 27 27 26 25 25 24 25 24 23 24 23 22 21 20 23 27 27 27 26 26 26 26 30 30 30 31 32 33 34 34 34
30 30 29 28 28 27 27 27 28 27 26 24 24 26 26 26 25 25 25 25 25 24 24 25 25 24 31 30 29 29 19 17 20 23 27 25 26 26 26 26 26 28 27 27 28 30 27 25 25 24 24 26 26 26 26 27 26 25 24 24 25 25 24 22 22 25 23 19 23 26 27 27 26 26 27 29 26 28 29 30 31 31 32 33 34
29 30 30 29 27 26 25 25 27 28 26 27 26 25 26 26 27 26 25 25 24 23 23 24 23 24 32 30 31 31 27 20 23 24 24 25 25 26 26 25 27 27 28 28 27 29 26 27 26 26 25 25 26 27 26 27 27 25 25 25 24 25 25 24 23 24 22 21 23 26 27 26 25 25 26 27 26 26 27 30 30 30 30 31 32
26 28 29 28 26 25 25 25 25 27 26 27 27 27 26 25 25 27 26 27 25 23 21 22 23 23 27 30 32 29 25 23 23 23 27 28 28 25 24 25 27 27 27 27 28 27 28 28 27 26 29 26 26 29 27 28 27 26 25 24 24 25 25 26 25 25 23 23 23 23 21 24 26 24 25 27 27 26 25 28 29 29 29 29 30
27 25 27 25 26 24 23 25 24 24 24 24 24 24 25 25 25 24 25 24 24 25 23 23 21 22 24 29 30 29 28 27 27 27 26 26 24 25 25 26 27 27 26 27 27 29 29 28 28 29 28 28 27 28 27 28 29 29 26 26 25 24 25 26 26 26 25 26 24 23 21 20 22 23 23 25 27 27 25 25 26 29 29 29 29
26 25 25 25 24 24 23 23 25 25 24 24 26 24 24 23 23 24 24 23 24 25 23 23 23 23 23 22 24 25 25 26 25 24 24 25 25 25 24 24 25 26 27 26 27 29 28 29 28 28 29 30 30 28 28 29 28 28 28 28 27 26 26 27 27 27 26 27 25 23 22 21 21 23 25 25 24 25 26 28 26 25 27 29 29
29 25 25 25 24 24 25 25 24 24 27 25 25 25 25 24 24 25 24 23 23 24 24 22 23 26 25 24 23 24 24 23 23 27 24 25 25 25 25 27 25 27 25 27 29 26 28 29 30 30 30 29 29 30 29 28 28 26 27 26 26 27 27 27 26 28 27 27 27 25 23 21 21 23 23 24 24 24 27 25 27 27 24 24 26
29 27 25 25 25 25 26 26 25 26 26 26 26 26 25 26 25 25 25 25 23 23 23 24 24 23 24 24 26 25 25 25 25 26 23 24 23 23 25 27 27 27 28 26 27 28 28 28 28 29 29 30 30 29 30 30 29 28 28 27 26 26 27 26 28 27 26 27 29 28 27 23 22 23 23 24 25 24 24 24 25 25 24 22 22
29 27 27 27 28 26 26 25 25 25 26 28 27 27 26 26 26 26 26 25 24 24 24 24 24 23 23 23 23 25 24 25 25 25 26 25 26 28 26 26 27 27 27 27 28 27 29 29 29 29 29 30 30 29 29 29 28 28 29 27 27 29 27 26 26 25 27 28 27 28 28 26 26 26 24 24 23 23 23 25 25 25 23 23 22
29 29 29 28 28 28 27 27 27 26 26 26 26 26 26 27 26 25 25 26 24 24 24 24 24 24 24 24 24 24 25 24 25 25 25 24 24 26 27 27 27 28 28 29 29 28 28 29 30 31 30 31 31 30 30 29 29 28 29 29 31 28 26 27 30 29 29 26 27 28 28 28 28 26 24 24 23 25 24 23 24 24 23 22 22
28 29 30 30 29 29 29 28 27 27 27 28 27 27 26 25 25 25 25 25 25 24 24 24 25 24 24 24 24 24 24 25 25 25 26 27 26 27 27 27 26 27 28 29 28 28 28 28 27 28 29 28 29 29 30 29 29 30 29 30 29 28 28 29 27 27 28 29 27 28 27 29 29 28 26 25 23 21 23 24 23 23 21 21 22